Retour au catalogue

CZ-6A DEB

ActifSSO
NORAD 54330·DEBRIS·🇨🇳 China

Lancé Nov 11, 2022 depuis Taiyuan Satellite Launch Center

Loading…

Prochains Passages (prochaines 24 heures)

TLE

FraisSource: Space-Track

Époque: Sep 14, 2026, 12:16 UTC

1 54330U 22151BZ  26257.51177698  .00001900  00000-0  75081-3 0  9996
2 54330  98.7556 281.9582 0053629  66.6810 294.0002 14.29395680198983

Suivez CZ-6A DEB en temps réel avec AllMySat

Download on the App Store